Regional Weather Roundup
Issued by NWS

Home | Current Version | Previous Version | Text Only | Print | Product List | Glossary On
Versions: 1 2 3 4 5 6 7 8 9 10 11 12 13 14 15 16 17 18 19 20 21 22 23 24 25 26 27 28 29 30 31 32 33 34 35 36 37 38 39 40 41 42 43 44 45 46 47 48 49 50
000
ASCA44 KEWX 260020
RWRMX

LATIN AMERICA AND CARIBBEAN REGIONAL WEATHER ROUNDUP
NATIONAL WEATHER SERVICE AUSTIN/SAN ANTONIO TX
700 PM CDT SUN JUN 25 2017

NOTE: "FAIR" INDICATED FEW OR NO CLOUDS BELOW 12,000 FEET WITH NO
SIGNIFICANT WEATHER AND/OR OBSTRUCTIONS TO VISIBILITY.

BAJA CALIFORNIA

CITY           SKY/WX    TMP DP  RH WIND       PRES   REMARKS
LORETO         SUNNY     90  77  66 SE8       29.76F HX 102
LA PAZ         PTSUNNY   86  59  39 S12       29.84F
MEXICALI       SUNNY    106  57  20 SE13      29.72F HX 105
S.J. DEL CABO  SUNNY     86  55  35 E17       29.82F
TIJUANA        MOSUNNY   82  63  51 SW5       29.89F

NORTHWESTERN MEXICO

CITY           SKY/WX    TMP DP  RH WIND       PRES   REMARKS
CULIACAN       SUNNY     90  72  55 SW12      29.81S HX  96
DURANGO        MOSUNNY   82  41  23 NE20      30.21F
GUAYMAS        SUNNY     88  79  74 SW14      29.73F HX 102
HERMOSILLO     SUNNY    106  66  27 SW17      29.80F HX 111
CD. JUAREZ     MOSUNNY   84  61  45 NE26      30.09R
LOS MOCHIS     SUNNY     86  66  51 SW10      29.82S
OBREGON        MOSUNNY   93  64  38 SW10      29.78F HX  95

NORTHEASTERN MEXICO

CITY           SKY/WX    TMP DP  RH WIND       PRES   REMARKS
CHIHUAHUA      MOSUNNY   91  52  25 E12       30.12F
MATAMOROS      CLOUDY    84  77  79 E7        30.00F HX  94
MONCLOVA       PTSUNNY   82  63  51 E16       30.03
MONTERREY      PTSUNNY   90  63  40 E17       30.02F HX  90
NUEVO LAREDO   PTSUNNY   86  73  66 NE7       30.04S HX  93
PIEDRAS NEGRAS PTSUNNY   81  73  78 E9        30.06R
REYNOSA        PTSUNNY   82  68  61 SE6       30.01F
SALTILLO       MOSUNNY   77  64  65 N14       30.25S
TORREON        MOSUNNY   93  48  21 N14       30.06F HX  90
CD. VICTORIA   PTSUNNY   91  61  35 N12       29.99F HX  91

WESTERN MEXICO

CITY           SKY/WX    TMP DP  RH WIND       PRES   REMARKS
AGUASCALIENTES PTSUNNY   79  46  31 E18       30.20F
COLIMA         CLOUDY    75  72  88 SW12      30.00S
DEL BAJIO      PTSUNNY   77  52  41 E7        30.25R
GUADALAJARA    PTSUNNY   81  54  39 SE9       30.08S
MANZANILLO     PTSUNNY   84  77  79 W12       29.82R HX  94
MAZATLAN       MOSUNNY   84  73  70 NW13      29.83F HX  91
P. VALLARTA    CLOUDY    84  79  84 SW13      29.84R HX  96
URUAPAN        CLOUDY    70  64  83 S8        30.16R
ZACATECAS        N/A    N/A N/A N/A MISG        N/A

CENTRAL MEXICO

CITY           SKY/WX    TMP DP  RH WIND       PRES   REMARKS
CUERNAVACA     PTSUNNY   79  66  65 SW6       30.08S
MEXICO CITY    CLOUDY    72  50  46 SE15      30.29S
MORELIA        LGT RAIN  64  63  94 CALM      30.22F
POZA RICA      LGT RAIN  75  75 100 NW6       30.04S
PUEBLA         PTSUNNY   63  54  72 E8        30.32S
QUERETARO      CLOUDY    72  54  53 NE16      30.27R
S. LUIS POTOSI PTSUNNY   70  52  52 E10       30.27F
TAMPICO        PTSUNNY   82  73  74 E8        29.99S
TOLUCA         CLOUDY    64  50  59 S14       30.35F

SOUTHERN MEXICO

CITY           SKY/WX    TMP DP  RH WIND       PRES   REMARKS
ACAPULCO       PTSUNNY   84  75  74 SE6       29.87S HX  92
B. DE HUATULCO MOSUNNY  N/A N/A N/A W12       29.95
OAXACA         CLOUDY    77  55  47 E7        30.15S
P. ESCONDIDO   PTSUNNY   82  75  78 S3        29.98S
VERACRUZ       PTSUNNY   82  75  78 N9        29.94S
ZIHUATANEJO    PTSUNNY   82  75  78 E9        29.87S

YUCATAN PENINSULA

CITY           SKY/WX    TMP DP  RH WIND       PRES   REMARKS
CAMPECHE       CLOUDY    81  77  89 CALM      29.92S
CANCUN         MOCLDY    84  77  79 E7        29.98F HX  94
CHETUMAL       MOCLDY    84  73  70 E12       29.93F HX  91
CD. DEL CARMEN CLOUDY   N/A N/A N/A NE2       29.93R
COZUMEL        PTCLDY    82  77  83 E7        29.95F HX  91
MERIDA         CLOUDY    79  77  94 N5        29.97S
MINATITLAN     CLOUDY    84  73  70 CALM      29.90S HX  91
TAPACHULA      CLOUDY    82  77  83 NW3       29.84S HX  91
TUX. GUTIERREZ CLOUDY    81  70  69 W8        29.95R
VILLAHERMOSA   CLOUDY    82  77  83 N5        29.93R HX  91

CENTRAL AMERICA

CITY           SKY/WX    TMP DP  RH WIND       PRES   REMARKS
BELIZE CITY    PTCLDY    84  77  79 E9        29.92S HX  94

CARIBBEAN

CITY           SKY/WX    TMP DP  RH WIND       PRES   REMARKS
ARUBA          PTCLDY    82  77  83 E20       29.89R HX  91
CURACAO        PTCLDY    82  73  74 E15       29.92S
KINGSTON       PTCLDY    86  77  74 SE18      29.94S HX  97
NASSAU         PTCLDY    88  64  45 E8        30.08R
SAN JUAN       PTCLDY    82  75  78 E13       30.07R
SANTO DOMINGO  PTCLDY    81  73  78 NE5       30.03R
ST. CROIX      LGT RAIN  75  73  94 SE7       30.08  FOG
ST. KITTS      PTCLDY    81  77  89 E14       30.06R
ST. MAARTEN    PTCLDY    82  75  78 E13       30.06S
ST. THOMAS     CLEAR     84  75  74 E15       30.06  HX  92

$$





USA.gov is the U.S. government's official web portal to all federal, state and local government web resources and services.